Location: ?????
(32.7281°N, 34.9563°E)
Time: 18:39:23
(UTC+00:00)

In-Cosmos 22 Rocket - Pass Details

Date: 29 October 2020
Orbit: 790 x 888 km, 81.2° (Epoch: 30 November)

Event Time Altitude Azimuth Distance (km) Brightness Sun altitude
Rises 15:54:49 0° 352° (N) 3,318 7.3 -13.8°
Reaches altitude 10° 15:57:11 10° 353° (N) 2,395 6.6 -14.3°
Maximum altitude 16:02:37 88° 82° (E) 827 4.1 -15.4°
Drops below altitude 10° 16:08:09 10° 173° (S) 2,443 6.6 -16.6°
Sets 16:10:34 0° 173° (S) 3,389 7.3 -17.1°
